Find Starlink 3617

NORAD ID: 51780 Int'l Des: 2022-017 Owner: SPXS Country: US Constellation: starlink operational
LEOCIRCULAR

Live Position

Loading 3D Globe...

About Starlink 3617

Description loading...

Upcoming Passes

Passes for default location (London). Set your location on the main map for personalized predictions.

Altitude History

Loading altitude history...

Two-Line Element Set

1 51780U 22017N 26134.02187411 -.00000317 00000-0 -18135-5 0 9999
2 51780 53.2176 45.8225 0001419 92.3010 267.8145 15.08842023232286
Epoch: May 14, 2026 • Age: 14 hours

Current Status

Altitude 555.1 km
Velocity 7.58 km/s
Sub-Earth Point -43.42°S, 178.84°W
Launch Date Feb 25, 2022
Age 4.2 years
Type internet

Technical Details

Classification Payload
Mass 297.00 kg
Dry Mass 275.00 kg
Total Mass 297.00 kg
Length 0.20 m
Diameter 2.80 m
Span 9.00 m
Shape Box + pan
Manufacturer SPXS
Bus Type Starlink
Phase Status In Orbit
Owner/State SPXS/US

Most Searched